• In Deutschland
  • Länderverzeichnis
  • Für 7 Tage
  • Wassertemperatur
  • Satellitenkarten
  • Wetterkarte
  • Widgets
  • user-avatar
    Anmelden

    Stündliche Wetter Öhringen

    Heute, 21 Februar, Mittwoch

    Zeit Temperatur Niederschläge Wind Luftdruck Luftfeuchtigkeit
    00:00 -3°C° 0 mm 2 m/S 742 mmHg 84%
    01:00 -3°C° 0 mm 2 m/S 742 mmHg 86%
    02:00 -3°C° 0 mm 2 m/S 742 mmHg 87%
    03:00 -3°C° 0 mm 2 m/S 742 mmHg 87%
    04:00 -4°C° 0 mm 2 m/S 742 mmHg 88%
    05:00 -4°C° 0 mm 2 m/S 742 mmHg 87%
    06:00 -4°C° 0 mm 2 m/S 743 mmHg 86%
    07:00 -4°C° 0 mm 2 m/S 743 mmHg 85%
    08:00 -4°C° 0 mm 3 m/S 743 mmHg 79%
    09:00 -2°C° 0 mm 3 m/S 743 mmHg 72%
    10:00 -1°C° 0 mm 3 m/S 743 mmHg 66%
    11:00 0°C° 0 mm 3 m/S 743 mmHg 61%
    12:00 0°C° 0 mm 4 m/S 743 mmHg 57%
    13:00 +1°C° 0 mm 4 m/S 742 mmHg 52%
    14:00 +1°C° 0 mm 4 m/S 742 mmHg 53%
    15:00 +1°C° 0 mm 4 m/S 742 mmHg 53%
    16:00 +1°C° 0 mm 4 m/S 742 mmHg 53%
    17:00 0°C° 0 mm 4 m/S 742 mmHg 59%
    18:00 -1°C° 0 mm 4 m/S 742 mmHg 65%
    19:00 -2°C° 0 mm 4 m/S 742 mmHg 71%
    20:00 -3°C° 0 mm 4 m/S 742 mmHg 72%
    21:00 -3°C° 0 mm 4 m/S 742 mmHg 74%
    22:00 -3°C° 0 mm 4 m/S 743 mmHg 75%
    23:00 -4°C° 0 mm 4 m/S 742 mmHg 76%

    Morgen, 22 Februar, Donnerstag

    Zeit Temperatur Niederschläge Wind Luftdruck Luftfeuchtigkeit
    00:00 -4°C° 0 mm 4 m/S 742 mmHg 76%
    01:00 -4°C° 0 mm 4 m/S 742 mmHg 77%
    02:00 -4°C° 0 mm 4 m/S 742 mmHg 77%
    03:00 -4°C° 0 mm 4 m/S 742 mmHg 77%
    04:00 -4°C° 0 mm 4 m/S 742 mmHg 78%
    05:00 -4°C° 0 mm 4 m/S 741 mmHg 77%
    06:00 -6°C° 0 mm 5 m/S 741 mmHg 77%
    07:00 -6°C° 0 mm 5 m/S 741 mmHg 77%
    08:00 -5°C° 0 mm 5 m/S 741 mmHg 71%
    09:00 -4°C° 0 mm 5 m/S 742 mmHg 66%
    10:00 -4°C° 0 mm 6 m/S 742 mmHg 61%
    11:00 -3°C° 0 mm 6 m/S 741 mmHg 56%
    12:00 -2°C° 0 mm 6 m/S 741 mmHg 52%
    13:00 -1°C° 0 mm 6 m/S 741 mmHg 48%
    14:00 -1°C° 0 mm 6 m/S 741 mmHg 47%
    15:00 -1°C° 0 mm 6 m/S 740 mmHg 47%
    16:00 -1°C° 0 mm 6 m/S 740 mmHg 47%
    17:00 -2°C° 0 mm 6 m/S 740 mmHg 50%
    18:00 -2°C° 0 mm 5 m/S 741 mmHg 53%
    19:00 -2°C° 0 mm 5 m/S 741 mmHg 56%
    20:00 -4°C° 0 mm 5 m/S 741 mmHg 56%
    21:00 -4°C° 0 mm 5 m/S 741 mmHg 57%
    22:00 -5°C° 0 mm 5 m/S 741 mmHg 58%
    23:00 -5°C° 0 mm 5 m/S 741 mmHg 58%

    übermorgen, 23 Februar, Freitag

    Zeit Temperatur Niederschläge Wind Luftdruck Luftfeuchtigkeit
    00:00 -5°C° 0 mm 5 m/S 741 mmHg 58%
    01:00 -5°C° 0 mm 5 m/S 741 mmHg 59%
    02:00 -5°C° 0 mm 5 m/S 740 mmHg 59%
    03:00 -5°C° 0 mm 5 m/S 740 mmHg 59%
    04:00 -6°C° 0 mm 5 m/S 740 mmHg 59%
    05:00 -6°C° 0 mm 5 m/S 740 mmHg 59%
    06:00 -6°C° 0 mm 5 m/S 741 mmHg 59%
    07:00 -6°C° 0 mm 5 m/S 741 mmHg 59%
    08:00 -5°C° 0 mm 5 m/S 741 mmHg 57%
    09:00 -4°C° 0 mm 5 m/S 741 mmHg 54%
    10:00 -4°C° 0 mm 6 m/S 741 mmHg 52%
    11:00 -3°C° 0 mm 6 m/S 741 mmHg 50%
    12:00 -2°C° 0 mm 6 m/S 741 mmHg 48%
    13:00 +1°C° 0 mm 6 m/S 741 mmHg 46%
    14:00 +1°C° 0 mm 6 m/S 741 mmHg 47%
    15:00 +1°C° 0 mm 6 m/S 740 mmHg 47%
    16:00 +1°C° 0 mm 6 m/S 740 mmHg 48%
    17:00 -1°C° 0 mm 6 m/S 740 mmHg 51%
    18:00 -1°C° 0 mm 5 m/S 740 mmHg 54%
    19:00 -2°C° 0 mm 5 m/S 741 mmHg 58%
    20:00 -2°C° 0 mm 5 m/S 741 mmHg 59%
    21:00 -3°C° 0 mm 6 m/S 741 mmHg 61%
    22:00 -4°C° 0 mm 6 m/S 741 mmHg 62%
    23:00 -4°C° 0 mm 6 m/S 741 mmHg 63%

    24 Februar, Samstag

    Zeit Temperatur Niederschläge Wind Luftdruck Luftfeuchtigkeit
    00:00 -4°C° 0 mm 5 m/S 741 mmHg 63%
    01:00 -4°C° 0 mm 5 m/S 741 mmHg 64%
    02:00 -4°C° 0 mm 5 m/S 741 mmHg 64%
    03:00 -4°C° 0 mm 5 m/S 741 mmHg 63%
    04:00 -5°C° 0 mm 5 m/S 741 mmHg 63%
    05:00 -5°C° 0 mm 5 m/S 741 mmHg 61%
    06:00 -5°C° 0 mm 5 m/S 741 mmHg 60%
    07:00 -5°C° 0 mm 5 m/S 741 mmHg 58%
    08:00 -4°C° 0 mm 5 m/S 742 mmHg 54%
    09:00 -3°C° 0 mm 6 m/S 742 mmHg 49%
    10:00 -3°C° 0 mm 6 m/S 742 mmHg 45%
    11:00 -2°C° 0 mm 6 m/S 742 mmHg 42%
    12:00 -1°C° 0 mm 6 m/S 742 mmHg 39%
    13:00 +1°C° 0 mm 6 m/S 742 mmHg 36%
    14:00 +1°C° 0 mm 6 m/S 742 mmHg 36%
    15:00 +1°C° 0 mm 6 m/S 742 mmHg 36%
    16:00 +1°C° 0 mm 6 m/S 742 mmHg 36%
    17:00 -1°C° 0 mm 6 m/S 742 mmHg 39%
    18:00 -2°C° 0 mm 6 m/S 742 mmHg 41%
    19:00 -3°C° 0 mm 6 m/S 743 mmHg 44%
    20:00 -4°C° 0 mm 6 m/S 743 mmHg 44%
    21:00 -4°C° 0 mm 6 m/S 744 mmHg 45%
    22:00 -5°C° 0 mm 6 m/S 744 mmHg 46%
    23:00 -5°C° 0 mm 6 m/S 744 mmHg 46%

    25 Februar, Sonntag

    Zeit Temperatur Niederschläge Wind Luftdruck Luftfeuchtigkeit
    00:00 -5°C° 0 mm 6 m/S 744 mmHg 46%
    01:00 -6°C° 0 mm 6 m/S 744 mmHg 46%
    02:00 -6°C° 0 mm 6 m/S 745 mmHg 46%
    03:00 -6°C° 0 mm 6 m/S 745 mmHg 46%
    04:00 -8°C° 0 mm 6 m/S 745 mmHg 47%
    05:00 -8°C° 0 mm 6 m/S 745 mmHg 46%
    06:00 -8°C° 0 mm 6 m/S 746 mmHg 46%
    07:00 -9°C° 0 mm 6 m/S 746 mmHg 46%
    08:00 -8°C° 0 mm 6 m/S 746 mmHg 44%
    09:00 -8°C° 0 mm 6 m/S 747 mmHg 41%
    10:00 -6°C° 0 mm 6 m/S 747 mmHg 39%
    11:00 -6°C° 0 mm 6 m/S 747 mmHg 37%
    12:00 -5°C° 0 mm 6 m/S 747 mmHg 35%
    13:00 -4°C° 0 mm 6 m/S 747 mmHg 32%
    14:00 -4°C° 0 mm 6 m/S 747 mmHg 32%
    15:00 -4°C° 0 mm 6 m/S 747 mmHg 32%
    16:00 -4°C° 0 mm 5 m/S 747 mmHg 31%
    17:00 -5°C° 0 mm 5 m/S 747 mmHg 33%
    18:00 -5°C° 0 mm 4 m/S 747 mmHg 35%
    19:00 -7°C° 0 mm 4 m/S 748 mmHg 37%
    20:00 -7°C° 0 mm 4 m/S 748 mmHg 37%
    21:00 -8°C° 0 mm 4 m/S 748 mmHg 37%
    22:00 -8°C° 0 mm 4 m/S 748 mmHg 37%
    23:00 -8°C° 0 mm 4 m/S 748 mmHg 38%

    26 Februar, Montag

    Zeit Temperatur Niederschläge Wind Luftdruck Luftfeuchtigkeit
    00:00 -8°C° 0 mm 4 m/S 748 mmHg 39%
    01:00 -9°C° 0 mm 4 m/S 748 mmHg 41%
    02:00 -9°C° 0 mm 4 m/S 748 mmHg 42%
    03:00 -8°C° 0 mm 3 m/S 748 mmHg 44%
    04:00 -9°C° 0 mm 3 m/S 747 mmHg 46%
    05:00 -9°C° 0 mm 3 m/S 747 mmHg 47%
    06:00 -9°C° 0 mm 3 m/S 748 mmHg 49%
    07:00 -9°C° 0 mm 3 m/S 748 mmHg 50%
    08:00 -10°C° 0 mm 4 m/S 748 mmHg 47%
    09:00 -9°C° 0 mm 4 m/S 748 mmHg 44%
    10:00 -8°C° 0 mm 4 m/S 748 mmHg 41%
    11:00 -8°C° 0 mm 4 m/S 747 mmHg 38%
    12:00 -7°C° 0 mm 4 m/S 747 mmHg 35%
    13:00 -5°C° 0 mm 4 m/S 747 mmHg 31%
    14:00 -5°C° 0 mm 4 m/S 746 mmHg 31%
    15:00 -5°C° 0 mm 4 m/S 746 mmHg 31%
    16:00 -5°C° 0 mm 4 m/S 746 mmHg 30%
    17:00 -7°C° 0 mm 4 m/S 746 mmHg 33%
    18:00 -7°C° 0 mm 4 m/S 746 mmHg 36%
    19:00 -7°C° 0 mm 3 m/S 746 mmHg 39%
    20:00 -7°C° 0 mm 3 m/S 745 mmHg 41%
    21:00 -9°C° 0 mm 4 m/S 745 mmHg 42%
    22:00 -9°C° 0 mm 4 m/S 745 mmHg 44%
    23:00 -8°C° 0 mm 3 m/S 745 mmHg 45%
    Mehr zeigen